STARLINK-32557 (62127 NORAD) Tracking and Keplerian Element Data

This shows tracking and keplerian element data for the satellite.

Feedback or suggestion? Click here.




ElementValue
Catalog62127
NameSTARLINK-32557
Epoch Orbit1183
Epoch Day34.82294917
Epoch Year2025
RAAN224.6327
Inclination42.9989
Eccentricity0.0001766
Argument of Perigee274.0884
Mean Anonmoly85.9771
Mean Motion15.4069238
Decay Rate-6.52E-06
L11 62127U 24222P 25034.82294917 -.00000652 00000+0 -83323-5 0 9994
L22 62127 42.9989 224.6327 0001766 274.0884 85.9771 15.40692380 11838



Live tracking and technical data element details for STARLINK-32557 (NORAD 62127). STARLINK-32557 can be tracked NOW for your location showing map with azimuth and elevation plus other details from your city location.







IsCatalogInMostPopularTable: catalog: 62127, numindb: 15
Update: records affected: 1



GetName: 62127 STARLINK-32557

Hit Count: updated at: Sun, 18 May 2025 22:32:59 GMT